TGW476 WSSS-WMKL

Flight info

Callsign TGW476
Flight time 1h 5m
Altitude 36000
Route AROSO5B AROSO Y513 KALIL Y504 BILIK Y506 TEPUS A457 VPG DAKOV1E
Aircraft A320/M-SDFGHIRWYZ/LB1

Departure

Time 2026-05-07 11:52
Airport Singapore Changi Airport (WSSS)

Arrival

Time 2026-05-07 12:58
Airport Langkawi International Airport (WMKL)
Time Latitude Longitude Altitude Speed Heading
2026-05-07 11:08 1.36416 103.99241 31 ft 0 kts 143°
2026-05-07 11:36 1.36424 103.99236 11 ft 1 kts 143°
2026-05-07 11:36 1.36432 103.99230 6 ft 1 kts 143°
2026-05-07 11:36 1.36440 103.99224 15 ft 1 kts 143°
2026-05-07 11:37 1.36447 103.99218 35 ft 1 kts 143°
2026-05-07 11:37 1.36457 103.99211 30 ft 2 kts 121°
2026-05-07 11:37 1.36461 103.99200 30 ft 2 kts 87°
2026-05-07 11:37 1.36461 103.99187 30 ft 2 kts 76°
2026-05-07 11:38 1.36456 103.99175 30 ft 2 kts 55°
2026-05-07 11:39 1.36457 103.99175 30 ft 1 kts 54°
2026-05-07 11:40 1.36465 103.99186 30 ft 4 kts 52°
2026-05-07 11:40 1.36486 103.99212 30 ft 6 kts 52°
2026-05-07 11:40 1.36517 103.99252 30 ft 8 kts 52°
2026-05-07 11:40 1.36557 103.99304 30 ft 11 kts 53°
2026-05-07 11:41 1.36591 103.99353 30 ft 8 kts 66°
2026-05-07 11:41 1.36577 103.99409 30 ft 10 kts 113°
2026-05-07 11:41 1.36547 103.99479 30 ft 12 kts 113°
2026-05-07 11:41 1.36510 103.99566 30 ft 15 kts 113°
2026-05-07 11:42 1.36468 103.99665 30 ft 15 kts 113°
2026-05-07 11:42 1.36427 103.99759 30 ft 14 kts 113°
2026-05-07 11:42 1.36409 103.99803 30 ft 0 kts 112°
2026-05-07 11:42 1.36403 103.99816 30 ft 4 kts 113°
2026-05-07 11:43 1.36394 103.99836 30 ft 0 kts 116°
2026-05-07 11:50 1.36388 103.99847 30 ft 3 kts 120°
2026-05-07 11:50 1.36376 103.99861 30 ft 5 kts 134°
2026-05-07 11:50 1.36337 103.99876 30 ft 8 kts 172°
2026-05-07 11:51 1.36252 103.99886 30 ft 11 kts 174°
2026-05-07 11:51 1.36195 103.99891 30 ft 13 kts 178°
2026-05-07 11:51 1.36098 103.99857 30 ft 22 kts 202°
2026-05-07 11:51 1.35761 103.99715 30 ft 87 kts 202°
2026-05-07 11:52 1.35033 103.99408 31 ft 140 kts 202°
2026-05-07 11:52 1.33986 103.98970 98 ft 178 kts 201°
2026-05-07 11:52 1.32820 103.98483 677 ft 182 kts 202°
2026-05-07 11:52 1.31663 103.97994 1352 ft 180 kts 202°
2026-05-07 11:53 1.30513 103.97505 1970 ft 178 kts 202°
2026-05-07 11:53 1.29358 103.97013 2418 ft 188 kts 202°
2026-05-07 11:53 1.28092 103.96490 2654 ft 210 kts 197°
2026-05-07 11:53 1.26585 103.96439 2907 ft 230 kts 162°
2026-05-07 11:54 1.25227 103.97301 3556 ft 236 kts 129°
2026-05-07 11:54 1.24422 103.98753 4367 ft 238 kts 112°
2026-05-07 11:54 1.23829 104.00297 5043 ft 249 kts 110°
2026-05-07 11:54 1.23210 104.01991 5454 ft 270 kts 109°
2026-05-07 11:55 1.22896 104.03887 5894 ft 278 kts 86°
2026-05-07 11:55 1.23422 104.05708 5986 ft 278 kts 60°
2026-05-07 11:55 1.24730 104.07110 6003 ft 279 kts 33°
2026-05-07 11:55 1.26520 104.07913 6311 ft 284 kts 18°
2026-05-07 11:56 1.28473 104.08204 7125 ft 288 kts 358°
2026-05-07 11:56 1.30438 104.07755 7927 ft 292 kts 341°
2026-05-07 11:56 1.32353 104.07071 8731 ft 294 kts 341°
2026-05-07 11:56 1.34292 104.06359 9494 ft 298 kts 341°
2026-05-07 11:57 1.36243 104.05637 10185 ft 303 kts 341°
2026-05-07 11:57 1.38288 104.04882 10413 ft 325 kts 341°
2026-05-07 11:57 1.40489 104.04072 10606 ft 345 kts 341°
2026-05-07 11:57 1.42768 104.03237 11069 ft 353 kts 341°
2026-05-07 11:58 1.45090 104.02385 11670 ft 356 kts 341°
2026-05-07 11:58 1.47421 104.01529 12287 ft 360 kts 341°
2026-05-07 11:58 1.49784 104.00661 12897 ft 363 kts 341°
2026-05-07 11:58 1.52190 103.99780 13504 ft 366 kts 341°
2026-05-07 11:59 1.54561 103.98912 14019 ft 369 kts 341°
2026-05-07 11:59 1.56973 103.98028 14531 ft 372 kts 341°
2026-05-07 11:59 1.59423 103.97128 15043 ft 375 kts 341°
2026-05-07 11:59 1.61874 103.96230 15550 ft 378 kts 342°
2026-05-07 12:00 1.64390 103.95312 16053 ft 381 kts 342°
2026-05-07 12:00 1.66850 103.94416 16547 ft 384 kts 342°
2026-05-07 12:00 1.69374 103.93494 17050 ft 387 kts 342°
2026-05-07 12:00 1.71941 103.92551 17539 ft 390 kts 341°
2026-05-07 12:01 1.74364 103.91368 18004 ft 396 kts 330°
2026-05-07 12:01 1.76592 103.89664 18416 ft 402 kts 318°
2026-05-07 12:01 1.78423 103.87576 18822 ft 407 kts 309°
2026-05-07 12:01 1.80165 103.85294 19269 ft 409 kts 309°
2026-05-07 12:02 1.81883 103.83059 19692 ft 411 kts 309°
2026-05-07 12:02 1.83635 103.80795 20111 ft 414 kts 309°
2026-05-07 12:02 1.85409 103.78510 20543 ft 416 kts 309°
2026-05-07 12:02 1.87209 103.76190 20933 ft 420 kts 309°
2026-05-07 12:03 1.88983 103.73903 21334 ft 423 kts 309°
2026-05-07 12:03 1.90791 103.71566 21737 ft 425 kts 309°
2026-05-07 12:03 1.92597 103.69223 22127 ft 428 kts 309°
2026-05-07 12:03 1.94420 103.66850 22510 ft 430 kts 309°
2026-05-07 12:04 1.96244 103.64475 22880 ft 433 kts 309°
2026-05-07 12:04 1.98077 103.62083 23253 ft 435 kts 309°
2026-05-07 12:04 1.99926 103.59673 23578 ft 438 kts 309°
2026-05-07 12:04 2.01791 103.57247 23883 ft 440 kts 309°
2026-05-07 12:05 2.03663 103.54818 24184 ft 442 kts 309°
2026-05-07 12:05 2.05534 103.52388 24487 ft 444 kts 309°
2026-05-07 12:05 2.07430 103.49919 24798 ft 446 kts 309°
2026-05-07 12:05 2.09315 103.47464 25115 ft 447 kts 309°
2026-05-07 12:06 2.11213 103.44994 25426 ft 449 kts 308°
2026-05-07 12:06 2.13087 103.42500 25726 ft 451 kts 305°
2026-05-07 12:06 2.14639 103.39764 26006 ft 454 kts 295°
2026-05-07 12:06 2.15728 103.36804 26308 ft 456 kts 287°
2026-05-07 12:07 2.16619 103.33746 26609 ft 458 kts 287°
2026-05-07 12:07 2.17508 103.30692 26903 ft 459 kts 287°
2026-05-07 12:07 2.18406 103.27613 27204 ft 461 kts 287°
2026-05-07 12:07 2.19305 103.24539 27489 ft 462 kts 287°
2026-05-07 12:08 2.20210 103.21454 27776 ft 464 kts 287°
2026-05-07 12:08 2.21121 103.18343 28070 ft 466 kts 287°
2026-05-07 12:08 2.22028 103.15267 28363 ft 468 kts 287°
2026-05-07 12:08 2.22962 103.12105 28662 ft 469 kts 287°
2026-05-07 12:09 2.23872 103.09004 28948 ft 471 kts 286°
2026-05-07 12:09 2.24788 103.05859 29231 ft 473 kts 286°
2026-05-07 12:09 2.25719 103.02657 29516 ft 475 kts 286°
2026-05-07 12:09 2.26633 102.99519 29795 ft 476 kts 286°
2026-05-07 12:10 2.27562 102.96340 30046 ft 478 kts 286°
2026-05-07 12:10 2.28498 102.93136 30332 ft 479 kts 286°
2026-05-07 12:10 2.29430 102.89951 30669 ft 478 kts 286°
2026-05-07 12:10 2.30367 102.86755 31015 ft 477 kts 286°
2026-05-07 12:11 2.31299 102.83580 31360 ft 477 kts 286°
2026-05-07 12:11 2.32233 102.80408 31718 ft 476 kts 286°
2026-05-07 12:11 2.33170 102.77222 32079 ft 476 kts 286°
2026-05-07 12:11 2.34097 102.74062 32468 ft 474 kts 286°
2026-05-07 12:12 2.35023 102.70895 32876 ft 473 kts 286°
2026-05-07 12:12 2.35941 102.67752 33278 ft 472 kts 286°
2026-05-07 12:12 2.36862 102.64595 33689 ft 471 kts 286°
2026-05-07 12:12 2.37774 102.61463 34043 ft 470 kts 286°
2026-05-07 12:13 2.38686 102.58334 34372 ft 469 kts 286°
2026-05-07 12:13 2.39598 102.55207 34706 ft 468 kts 286°
2026-05-07 12:13 2.40510 102.52094 35001 ft 468 kts 286°
2026-05-07 12:13 2.41425 102.48968 35238 ft 467 kts 286°
2026-05-07 12:14 2.42334 102.45860 35470 ft 466 kts 286°
2026-05-07 12:14 2.43246 102.42739 35699 ft 466 kts 286°
2026-05-07 12:14 2.44153 102.39632 35798 ft 467 kts 287°
2026-05-07 12:15 2.46220 102.33466 35810 ft 468 kts 296°
2026-05-07 12:15 2.49744 102.28019 35807 ft 467 kts 307°
2026-05-07 12:16 2.53609 102.22789 35806 ft 467 kts 307°
2026-05-07 12:16 2.57438 102.17589 35807 ft 467 kts 307°
2026-05-07 12:17 2.61295 102.12350 35805 ft 468 kts 307°
2026-05-07 12:17 2.65154 102.07110 35806 ft 468 kts 307°
2026-05-07 12:18 2.69028 102.01843 35801 ft 468 kts 307°
2026-05-07 12:18 2.72858 101.96635 35795 ft 468 kts 307°
2026-05-07 12:19 2.76720 101.91388 35791 ft 468 kts 307°
2026-05-07 12:19 2.80581 101.86138 35786 ft 468 kts 307°
2026-05-07 12:20 2.84446 101.80889 35798 ft 468 kts 307°
2026-05-07 12:20 2.88312 101.75641 35800 ft 468 kts 307°
2026-05-07 12:21 2.92174 101.70388 35804 ft 468 kts 307°
2026-05-07 12:21 2.96034 101.65134 35808 ft 469 kts 307°
2026-05-07 12:22 2.99903 101.59881 35813 ft 469 kts 307°
2026-05-07 12:22 3.03760 101.54634 35809 ft 469 kts 307°
2026-05-07 12:23 3.07625 101.49370 35812 ft 469 kts 307°
2026-05-07 12:23 3.11503 101.44108 35805 ft 469 kts 307°
2026-05-07 12:24 3.15376 101.38845 35802 ft 469 kts 307°
2026-05-07 12:24 3.19241 101.33576 35801 ft 469 kts 307°
2026-05-07 12:25 3.23111 101.28311 35798 ft 469 kts 307°
2026-05-07 12:25 3.26968 101.23057 35801 ft 469 kts 307°
2026-05-07 12:26 3.30830 101.17788 35794 ft 469 kts 307°
2026-05-07 12:26 3.35257 101.13044 35792 ft 466 kts 324°
2026-05-07 12:27 3.40878 101.09904 35787 ft 463 kts 338°
2026-05-07 12:27 3.46771 101.07278 35780 ft 464 kts 337°
2026-05-07 12:28 3.52635 101.04646 35778 ft 464 kts 337°
2026-05-07 12:28 3.58525 101.01999 35780 ft 465 kts 337°
2026-05-07 12:29 3.64418 100.99353 35782 ft 465 kts 337°
2026-05-07 12:29 3.70327 100.96708 35784 ft 465 kts 337°
2026-05-07 12:30 3.76239 100.94075 35789 ft 465 kts 338°
2026-05-07 12:30 3.82156 100.91451 35787 ft 465 kts 338°
2026-05-07 12:31 3.88070 100.88822 35788 ft 465 kts 338°
2026-05-07 12:31 3.94001 100.86178 35792 ft 465 kts 338°
2026-05-07 12:32 3.99914 100.83549 35794 ft 466 kts 338°
2026-05-07 12:32 4.05803 100.80921 35795 ft 466 kts 337°
2026-05-07 12:33 4.14684 100.76957 35790 ft 466 kts 338°
2026-05-07 12:33 4.20611 100.74319 35791 ft 466 kts 338°
2026-05-07 12:34 4.26522 100.71668 35810 ft 466 kts 337°
2026-05-07 12:34 4.32435 100.69011 35810 ft 466 kts 337°
2026-05-07 12:35 4.38350 100.66350 35806 ft 466 kts 337°
2026-05-07 12:35 4.44268 100.63696 35805 ft 466 kts 337°
2026-05-07 12:36 4.50185 100.61040 35812 ft 466 kts 337°
2026-05-07 12:36 4.55093 100.58833 35810 ft 466 kts 337°
2026-05-07 12:37 4.60944 100.56204 35816 ft 466 kts 337°
2026-05-07 12:37 4.66865 100.53549 35813 ft 466 kts 337°
2026-05-07 12:38 4.72789 100.50896 35813 ft 466 kts 337°
2026-05-07 12:38 4.78711 100.48232 35817 ft 466 kts 337°
2026-05-07 12:39 4.84631 100.45563 35817 ft 466 kts 337°
2026-05-07 12:39 4.90567 100.42894 35258 ft 471 kts 337°
2026-05-07 12:40 4.93579 100.41542 34350 ft 479 kts 338°
2026-05-07 12:40 4.96639 100.40170 33394 ft 485 kts 338°
2026-05-07 12:40 4.99746 100.38775 32432 ft 490 kts 337°
2026-05-07 12:40 5.02859 100.37376 31726 ft 488 kts 337°
2026-05-07 12:41 5.05894 100.36006 31146 ft 472 kts 337°
2026-05-07 12:41 5.08849 100.34671 30549 ft 458 kts 337°
2026-05-07 12:41 5.11715 100.33380 29976 ft 453 kts 337°
2026-05-07 12:41 5.14581 100.32092 29332 ft 452 kts 337°
2026-05-07 12:42 5.17434 100.30810 28760 ft 449 kts 337°
2026-05-07 12:42 5.20272 100.29534 28186 ft 446 kts 337°
2026-05-07 12:42 5.23064 100.28278 27612 ft 443 kts 337°
2026-05-07 12:42 5.25862 100.27013 27032 ft 441 kts 336°
2026-05-07 12:43 5.28515 100.25469 26482 ft 440 kts 326°
2026-05-07 12:43 5.30906 100.23497 25899 ft 439 kts 320°
2026-05-07 12:43 5.33175 100.21506 25349 ft 438 kts 320°
2026-05-07 12:43 5.35495 100.19483 24801 ft 435 kts 320°
2026-05-07 12:44 5.37774 100.17502 24261 ft 434 kts 320°
2026-05-07 12:44 5.40022 100.15548 23755 ft 431 kts 321°
2026-05-07 12:44 5.42283 100.13581 23217 ft 429 kts 321°
2026-05-07 12:44 5.44533 100.11621 22691 ft 425 kts 321°
2026-05-07 12:45 5.46750 100.09690 22208 ft 421 kts 321°
2026-05-07 12:45 5.48959 100.07766 21695 ft 419 kts 321°
2026-05-07 12:45 5.51182 100.05830 21181 ft 415 kts 321°
2026-05-07 12:45 5.53325 100.03964 20656 ft 413 kts 321°
2026-05-07 12:46 5.55516 100.02057 20131 ft 411 kts 321°
2026-05-07 12:46 5.57646 100.00203 19597 ft 409 kts 321°
2026-05-07 12:46 5.59819 99.98311 19042 ft 408 kts 321°
2026-05-07 12:46 5.61933 99.96467 18488 ft 407 kts 321°
2026-05-07 12:47 5.64063 99.94609 17895 ft 406 kts 321°
2026-05-07 12:47 5.66191 99.92751 17302 ft 400 kts 321°
2026-05-07 12:47 5.68238 99.90964 16759 ft 382 kts 321°
2026-05-07 12:47 5.70211 99.89243 16241 ft 370 kts 321°
2026-05-07 12:48 5.72148 99.87555 15709 ft 369 kts 321°
2026-05-07 12:48 5.74081 99.85869 15184 ft 368 kts 321°
2026-05-07 12:48 5.76019 99.84178 14675 ft 368 kts 320°
2026-05-07 12:48 5.77944 99.82498 14144 ft 367 kts 320°
2026-05-07 12:49 5.79877 99.80816 13613 ft 367 kts 320°
2026-05-07 12:49 5.81795 99.79143 13042 ft 365 kts 320°
2026-05-07 12:49 5.83708 99.77469 12515 ft 362 kts 320°
2026-05-07 12:49 5.85595 99.75819 12108 ft 357 kts 320°
2026-05-07 12:50 5.87461 99.74187 11652 ft 354 kts 320°
2026-05-07 12:50 5.89311 99.72572 11141 ft 353 kts 320°
2026-05-07 12:50 5.91165 99.70955 10644 ft 352 kts 320°
2026-05-07 12:50 5.92997 99.69358 10329 ft 344 kts 320°
2026-05-07 12:51 5.94747 99.67830 10195 ft 321 kts 320°
2026-05-07 12:51 5.96389 99.66394 9802 ft 309 kts 320°
2026-05-07 12:51 5.97987 99.64995 9540 ft 301 kts 319°
2026-05-07 12:51 5.99570 99.63610 9292 ft 303 kts 320°
2026-05-07 12:52 6.01155 99.62224 8745 ft 299 kts 320°
2026-05-07 12:52 6.02697 99.60877 8188 ft 296 kts 320°
2026-05-07 12:52 6.04261 99.59513 7718 ft 300 kts 319°
2026-05-07 12:52 6.05875 99.58178 7383 ft 293 kts 328°
2026-05-07 12:53 6.07726 99.57451 6803 ft 289 kts 352°
2026-05-07 12:53 6.09713 99.57537 6204 ft 285 kts 16°
2026-05-07 12:53 6.11483 99.58373 5589 ft 282 kts 34°
2026-05-07 12:53 6.13123 99.59449 4959 ft 281 kts 33°
2026-05-07 12:54 6.14753 99.60518 4393 ft 278 kts 33°
2026-05-07 12:54 6.16370 99.61576 3829 ft 275 kts 32°
2026-05-07 12:54 6.17923 99.62591 3715 ft 260 kts 32°
2026-05-07 12:54 6.19397 99.63576 3654 ft 248 kts 33°
2026-05-07 12:55 6.20782 99.64528 3598 ft 236 kts 33°
2026-05-07 12:55 6.22099 99.65430 3545 ft 225 kts 34°
2026-05-07 12:55 6.23377 99.66303 3493 ft 216 kts 33°
2026-05-07 12:55 6.24564 99.67114 3472 ft 195 kts 32°
2026-05-07 12:56 6.25622 99.67836 3379 ft 174 kts 32°
2026-05-07 12:56 6.26599 99.68491 3075 ft 168 kts 32°
2026-05-07 12:56 6.27572 99.69154 2641 ft 170 kts 33°
2026-05-07 12:56 6.28553 99.69847 2088 ft 176 kts 32°
2026-05-07 12:57 6.29595 99.70551 1316 ft 189 kts 32°
2026-05-07 12:57 6.30725 99.71316 548 ft 197 kts 34°
2026-05-07 12:57 6.31828 99.72076 122 ft 183 kts 33°
2026-05-07 12:57 6.32797 99.72743 35 ft 146 kts 34°
2026-05-07 12:58 6.33357 99.73126 35 ft 57 kts 33°
2026-05-07 12:58 6.33586 99.73283 37 ft 30 kts 34°
2026-05-07 12:58 6.33676 99.73344 36 ft 8 kts 33°
2026-05-07 12:58 6.33738 99.73352 37 ft 10 kts 339°
2026-05-07 12:59 6.33780 99.73305 36 ft 9 kts 306°
2026-05-07 12:59 6.33823 99.73246 36 ft 12 kts 305°
2026-05-07 12:59 6.33868 99.73197 36 ft 8 kts 346°
2026-05-07 12:59 6.33916 99.73211 36 ft 7 kts 355°
2026-05-07 13:00 6.33944 99.73183 34 ft 5 kts 305°
2026-05-07 13:00 6.33956 99.73164 36 ft 0 kts 304°